This is the latest recevied weather packets stored in our database for station/object KM5VY. If no packets are shown the sender has not sent any weather packets the latest 10 day(s).
| Time | Temp. | Humidity | Pressure | Rain* | Wind** | Luminosity | Snow |
|---|---|---|---|---|---|---|---|
| 1777641520 | 1.67° C | 75% | 1017.9 hPa | 0 mm | - | - | - |
| 1777641260 | 1.67° C | 74% | 1017.9 hPa | 0 mm | - | - | - |
| 1777640918 | 1.67° C | 74% | 1017.9 hPa | 0 mm | - | - | - |
| 1777640318 | 1.67° C | 74% | 1017.6 hPa | 0 mm | - | - | - |
| 1777638514 | 1.11° C | 75% | 1017.3 hPa | 0 mm | - | - | - |
| 1777636711 | 1.67° C | 73% | 1017.3 hPa | 0 mm | - | - | - |
| 1777636111 | 1.67° C | 73% | 1016.9 hPa | 0 mm | - | - | - |
| 1777635803 | 1.67° C | 72% | 1016.9 hPa | 0 mm | - | - | - |
| 1777635510 | 1.67° C | 72% | 1016.9 hPa | 0 mm | - | - | - |
| 1777634909 | 2.22° C | 72% | 1016.9 hPa | 0 mm | - | - | - |
| 1777634307 | 2.22° C | 72% | 1017.3 hPa | 0 mm | - | - | - |
| 1777634092 | 2.22° C | 72% | 1016.9 hPa | 0 mm | - | - | - |
| 1777633707 | 2.22° C | 72% | 1016.9 hPa | 0 mm | - | - | - |
| 1777633106 | 2.22° C | 71% | 1017.3 hPa | 0 mm | - | - | - |
| 1777631903 | 2.78° C | 71% | 1017.3 hPa | 0 mm | - | - | - |
| 1777631303 | 2.78° C | 71% | 1017.3 hPa | 0 mm | - | - | - |
| 1777630702 | 2.78° C | 71% | 1017.3 hPa | 0 mm | - | - | - |
| 1777630485 | 2.78° C | 71% | 1017.3 hPa | 0 mm | - | - | - |
| 1777630101 | 2.78° C | 71% | 1017.3 hPa | 0 mm | - | - | - |
| 1777629500 | 3.33° C | 72% | 1017.3 hPa | 0 mm | - | - | - |
| 1777628899 | 3.33° C | 72% | 1017.3 hPa | 0 mm | - | - | - |
| 1777628297 | 3.33° C | 72% | 1017.3 hPa | 0 mm | - | - | - |
| 1777627696 | 3.33° C | 72% | 1016.6 hPa | 0 mm | - | - | - |
| 1777627095 | 3.33° C | 71% | 1016.6 hPa | 0 mm | - | - | - |
| 1777626808 | 3.89° C | 71% | 1016.6 hPa | 0 mm | - | - | - |
* Rain latest hour (hover to see other rain measurements)
** Current wind speed in m/s (hover to see current wind gust speed)